| time (UTC) | temp F | wind direction | speed knots | gust knots | rain 1hr in | rain 24hr in | rain mn in | humidity % | barometer mb |
| 20260507141512 | 34 | 316 | 1.7 | 2.6 | 0.00 | 0.01 | 0.01 | 80 | 1016.2 |
| 20260507140013 | 35 | 319 | 0.9 | 3.5 | 0.00 | 0.01 | 0.01 | 79 | 1016.1 |
| 20260507134510 | 35 | 124 | 0.0 | 1.7 | 0.00 | 0.01 | 0.01 | 84 | 1016.1 |
| 20260507133009 | 34 | 110 | 0.9 | 4.3 | 0.00 | 0.01 | 0.01 | 87 | 1016.0 |
| 20260507131516 | 32 | 330 | 2.6 | 6.1 | 0.00 | 0.01 | 0.01 | 90 | 1016.0 |
| 20260507130012 | 31 | 307 | 5.2 | 14.8 | 0.00 | 0.01 | 0.01 | 90 | 1016.0 |
| 20260507124504 | 34 | 293 | 9.6 | 13.0 | 0.00 | 0.01 | 0.01 | 75 | 1015.7 |
| 20260507123004 | 35 | 276 | 4.3 | 7.8 | 0.00 | 0.01 | 0.01 | 70 | 1015.5 |
| 20260507121502 | 35 | 272 | 1.7 | 4.3 | 0.00 | 0.01 | 0.01 | 69 | 1015.6 |
| 20260507120001 | 35 | 271 | 0.0 | 4.3 | 0.00 | 0.02 | 0.01 | 69 | 1015.5 |
| 20260507114604 | 36 | 319 | 0.0 | 2.6 | 0.00 | 0.02 | 0.01 | 68 | 1015.4 |
| 20260507113101 | 36 | 47 | 0.0 | 1.7 | 0.00 | 0.02 | 0.01 | 67 | 1015.3 |
| 20260507111556 | 35 | 58 | 2.6 | 5.2 | 0.00 | 0.02 | 0.01 | 68 | 1015.2 |
| 20260507110054 | 36 | 82 | 0.9 | 3.5 | 0.00 | 0.02 | 0.01 | 70 | 1015.2 |
| 20260507104551 | 35 | 79 | 1.7 | 4.3 | 0.00 | 0.02 | 0.01 | 70 | 1015.1 |
| 20260507103050 | 36 | 105 | 1.7 | 4.3 | 0.00 | 0.02 | 0.01 | 70 | 1015.0 |
| 20260507101549 | 34 | 63 | 2.6 | 5.2 | 0.00 | 0.02 | 0.01 | 73 | 1015.0 |
| 20260507100047 | 34 | 79 | 3.5 | 6.1 | 0.00 | 0.03 | 0.01 | 73 | 1014.9 |
| 20260507094541 | 34 | 180 | 1.7 | 4.3 | 0.00 | 0.03 | 0.01 | 73 | 1014.9 |
| 20260507093045 | 33 | 84 | 1.7 | 7.0 | 0.00 | 0.03 | 0.01 | 75 | 1014.8 |
| 20260507091535 | 32 | 77 | 3.5 | 7.0 | 0.00 | 0.03 | 0.01 | 77 | 1014.8 |
| 20260507090034 | 31 | 180 | 4.3 | 7.8 | 0.00 | 0.05 | 0.01 | 77 | 1014.7 |
| 20260507084532 | 31 | 106 | 5.2 | 8.7 | 0.00 | 0.05 | 0.01 | 77 | 1014.6 |
| 20260507083032 | 31 | 180 | 7.0 | 8.7 | 0.01 | 0.05 | 0.01 | 75 | 1014.5 |
| 20260507081531 | 32 | 180 | 3.5 | 5.2 | 0.01 | 0.05 | 0.01 | 73 | 1014.4 |
| 20260507080037 | 31 | 180 | 4.3 | 6.1 | 0.01 | 0.10 | 0.01 | 72 | 1014.2 |
| 20260507074528 | 30 | 180 | 5.2 | 7.0 | 0.01 | 0.10 | 0.01 | 74 | 1014.1 |
| 20260507073026 | 30 | 180 | 5.2 | 7.8 | 0.00 | 0.09 | 0.00 | 74 | 1014.0 |
| 20260507071554 | 32 | 97 | 4.3 | 7.0 | 0.00 | 0.09 | 0.00 | 72 | 1013.8 |
| 20260507070021 | 30 | 180 | 5.2 | 7.8 | 0.00 | 0.10 | 0.00 | 76 | 1013.8 |
| 20260507064522 | 30 | 180 | 6.1 | 9.6 | 0.00 | 0.10 | 0.00 | 75 | 1013.6 |
| 20260507063019 | 30 | 84 | 7.0 | 10.4 | 0.00 | 0.10 | 0.00 | 73 | 1013.4 |
| 20260507061518 | 30 | 180 | 7.0 | 9.6 | 0.00 | 0.10 | 0.00 | 73 | 1013.4 |
| 20260507060017 | 30 | 180 | 2.6 | 8.7 | 0.00 | 0.10 | 0.00 | 73 | 1013.5 |
| 20260507054515 | 29 | 180 | 4.3 | 7.0 | 0.00 | 0.10 | 0.00 | 78 | 1013.4 |
| 20260507053014 | 30 | 180 | 5.2 | 7.0 | 0.00 | 0.10 | 0.00 | 76 | 1013.2 |
| 20260507051519 | 30 | 326 | 1.7 | 5.2 | 0.00 | 0.10 | 0.00 | 75 | 1013.3 |
| 20260507050012 | 29 | 63 | 2.6 | 6.1 | 0.00 | 0.10 | 0.00 | 77 | 1013.2 |
| 20260507044508 | 29 | 84 | 5.2 | 7.0 | 0.00 | 0.10 | 0.00 | 77 | 1013.1 |
| 20260507043010 | 28 | 76 | 7.8 | 9.6 | 0.00 | 0.10 | 0.00 | 78 | 1013.0 |
| 20260507041506 | 29 | 91 | 6.1 | 8.7 | 0.00 | 0.10 | 0.00 | 79 | 1013.0 |
| 20260507040005 | 28 | 77 | 6.1 | 8.7 | 0.00 | 0.10 | 0.00 | 79 | 1012.9 |
| 20260507034507 | 27 | 180 | 6.1 | 8.7 | 0.00 | 0.10 | 0.00 | 81 | 1012.9 |
| 20260507033010 | 26 | 180 | 6.1 | 7.8 | 0.00 | 0.10 | 0.00 | 85 | 1012.9 |
| 20260507031501 | 26 | 93 | 5.2 | 7.8 | 0.00 | 0.10 | 0.00 | 85 | 1012.7 |
| 20260507030100 | 26 | 180 | 5.2 | 6.1 | 0.00 | 0.10 | 0.00 | 87 | 1012.6 |
| 20260507024604 | 27 | 61 | 0.9 | 6.1 | 0.00 | 0.10 | 0.00 | 85 | 1012.6 |
| 20260507023054 | 27 | 44 | 1.7 | 7.8 | 0.00 | 0.10 | 0.00 | 88 | 1012.4 |
| 20260507021552 | 27 | 180 | 6.1 | 7.8 | 0.00 | 0.10 | 0.00 | 90 | 1012.4 |
| 20260507020052 | 27 | 180 | 7.0 | 8.7 | 0.00 | 0.10 | 0.00 | 90 | 1012.3 |
| 20260507014559 | 27 | 180 | 5.2 | 8.7 | 0.00 | 0.10 | 0.00 | 90 | 1012.2 |
| 20260507013049 | 27 | 110 | 6.1 | 7.8 | 0.00 | 0.10 | 0.00 | 89 | 1012.0 |
| 20260507011545 | 27 | 180 | 5.2 | 7.8 | 0.00 | 0.10 | 0.00 | 89 | 1012.0 |
| 20260507010041 | 27 | 180 | 4.3 | 7.8 | 0.00 | 0.10 | 0.00 | 88 | 1011.8 |
| 20260507004540 | 28 | 180 | 4.3 | 7.8 | 0.00 | 0.10 | 0.00 | 85 | 1011.7 |
| 20260507003035 | 29 | 72 | 6.1 | 9.6 | 0.00 | 0.10 | 0.00 | 86 | 1011.7 |
| 20260507001538 | 29 | 180 | 8.7 | 13.9 | 0.00 | 0.10 | 0.00 | 84 | 1011.5 |
| 20260507000032 | 29 | 180 | 7.0 | 8.7 | 0.00 | 0.10 | 0.00 | 81 | 1011.4 |
| 20260506234530 | 30 | 77 | 7.0 | 8.7 | 0.00 | 0.10 | 0.00 | 83 | 1011.4 |
| 20260506233029 | 29 | 77 | 7.8 | 9.6 | 0.00 | 0.10 | 0.00 | 80 | 1011.2 |
| 20260506231526 | 29 | 180 | 7.8 | 9.6 | 0.00 | 0.10 | 0.00 | 78 | 1011.1 |
| 20260506230024 | 30 | 180 | 6.1 | 8.7 | 0.00 | 0.10 | 0.00 | 80 | 1011.0 |
| 20260506224523 | 30 | 180 | 4.3 | 7.8 | 0.00 | 0.10 | 0.00 | 81 | 1010.9 |
| 20260506223021 | 30 | 180 | 6.1 | 7.8 | 0.00 | 0.10 | 0.00 | 82 | 1010.8 |
| 20260506221518 | 30 | 180 | 7.0 | 8.7 | 0.00 | 0.10 | 0.00 | 83 | 1010.9 |
| 20260506220030 | 30 | 180 | 7.8 | 9.6 | 0.00 | 0.10 | 0.10 | 84 | 1010.8 |
| 20260506214514 | 30 | 180 | 7.0 | 8.7 | 0.00 | 0.10 | 0.10 | 83 | 1010.8 |
| 20260506213011 | 30 | 70 | 7.8 | 11.3 | 0.00 | 0.10 | 0.10 | 85 | 1010.7 |
| 20260506211509 | 30 | 75 | 6.1 | 7.0 | 0.00 | 0.10 | 0.10 | 88 | 1010.7 |
| 20260506210013 | 30 | 180 | 4.3 | 6.1 | 0.00 | 0.10 | 0.10 | 86 | 1010.6 |
| 20260506204509 | 30 | 73 | 3.5 | 6.1 | 0.00 | 0.10 | 0.10 | 87 | 1010.6 |
| 20260506203008 | 30 | 65 | 5.2 | 7.0 | 0.00 | 0.10 | 0.10 | 91 | 1010.5 |
| 20260506201506 | 30 | 176 | 0.0 | 1.7 | 0.00 | 0.10 | 0.10 | 93 | 1010.4 |
| 20260506200005 | 30 | 251 | 0.0 | 1.7 | 0.00 | 0.10 | 0.10 | 93 | 1010.5 |
| 20260506194504 | 31 | 251 | 0.0 | 1.7 | 0.00 | 0.10 | 0.10 | 93 | 1010.4 |
| 20260506193002 | 31 | 251 | 0.0 | 1.7 | 0.00 | 0.10 | 0.10 | 93 | 1010.2 |
| 20260506191501 | 31 | 251 | 0.0 | 1.7 | 0.00 | 0.10 | 0.10 | 93 | 1010.2 |
| 20260506190100 | 31 | 251 | 0.9 | 1.7 | 0.00 | 0.11 | 0.10 | 93 | 1010.2 |
| 20260506184600 | 31 | 251 | 1.7 | 3.5 | 0.00 | 0.11 | 0.10 | 93 | 1010.2 |
| 20260506183115 | 31 | 241 | 2.6 | 5.2 | 0.00 | 0.11 | 0.10 | 92 | 1010.1 |
| 20260506181602 | 32 | 245 | 2.6 | 4.3 | 0.00 | 0.11 | 0.10 | 90 | 1010.0 |
| 20260506180114 | 32 | 207 | 2.6 | 3.5 | 0.00 | 0.13 | 0.10 | 88 | 1009.9 |
| 20260506174556 | 31 | 271 | 3.5 | 5.2 | 0.00 | 0.13 | 0.10 | 88 | 1009.9 |
| 20260506173129 | 32 | 302 | 2.6 | 5.2 | 0.00 | 0.13 | 0.10 | 89 | 1009.9 |
| 20260506171554 | 32 | 330 | 1.7 | 3.5 | 0.00 | 0.13 | 0.10 | 88 | 1009.8 |
| 20260506170053 | 32 | 318 | 2.6 | 5.2 | 0.00 | 0.13 | 0.10 | 90 | 1009.7 |
| 20260506164553 | 31 | 320 | 2.6 | 4.3 | 0.00 | 0.13 | 0.10 | 89 | 1009.7 |
| 20260506163056 | 31 | 307 | 4.3 | 6.1 | 0.00 | 0.13 | 0.10 | 89 | 1009.6 |
| 20260506161555 | 31 | 316 | 3.5 | 7.0 | 0.00 | 0.13 | 0.10 | 86 | 1009.5 |
| 20260506160049 | 31 | 306 | 1.7 | 7.0 | 0.00 | 0.16 | 0.10 | 85 | 1009.4 |
| 20260506154549 | 32 | 319 | 5.2 | 7.8 | 0.00 | 0.16 | 0.10 | 86 | 1009.3 |
| 20260506153047 | 33 | 286 | 2.6 | 4.3 | 0.00 | 0.16 | 0.10 | 84 | 1009.3 |
| 20260506151547 | 33 | 313 | 1.7 | 3.5 | 0.00 | 0.16 | 0.10 | 82 | 1009.2 |
| 20260506150045 | 33 | 302 | 1.7 | 3.5 | 0.00 | 0.16 | 0.10 | 83 | 1009.2 |
| 20260506144559 | 33 | 314 | 1.7 | 2.6 | 0.00 | 0.16 | 0.10 | 84 | 1009.1 |
| 20260506143042 | 32 | 314 | 0.0 | 1.7 | 0.00 | 0.16 | 0.10 | 84 | 1009.1 |